Zurück zum Katalog

SL-16 DEB

AktivLEO
NORAD 27760·DEBRIS·🇷🇺 Russia

Gestartet Nov 24, 1994 von Baikonur Cosmodrome

Loading…

Nächste Überflüge (nächste 24 Stunden)

TLE

AktuellSource: Space-Track

Epoche: Sep 14, 2026, 07:58 UTC

1 27760U 94077M   26257.33257037  .00002734  00000-0  46921-3 0  9992
2 27760  70.9914 231.6712 0040028 107.2747 322.9373 14.69154326403140

Verfolge SL-16 DEB in Echtzeit mit AllMySat

Download on the App Store